When you browse on this site, cookies collect data to enhance your experience and personalize the content and advertising you see.
Visit our Privacy Policy to learn more. By continuing to use the site, you agree to this use of cookies and data.
  • In Austria
  • List of Countries
  • For 7 days
  • Water Temperature
  • Satellite Maps
  • Weather Map
  • News
  • Weather Widgets
  • user-avatar
    Login

    Hourly Weather Tirana

    Today, 19 January, Saturday

    Time Temperature Precipitation Wind Pressure Humidity
    00:00 +5°C° 0.2 mm 6 mps 754 mmHg 78%
    01:00 +5°C° 0 mm 6 mps 753 mmHg 80%
    02:00 +6°C° 0.1 mm 5 mps 753 mmHg 79%
    03:00 +6°C° 0.1 mm 5 mps 753 mmHg 79%
    04:00 +6°C° 0.1 mm 5 mps 753 mmHg 78%
    05:00 +6°C° 0.1 mm 5 mps 753 mmHg 77%
    06:00 +6°C° 0.1 mm 5 mps 753 mmHg 76%
    07:00 +6°C° 0.1 mm 4 mps 753 mmHg 75%
    08:00 +7°C° 0 mm 4 mps 753 mmHg 71%
    09:00 +10°C° 0 mm 4 mps 754 mmHg 66%
    10:00 +12°C° 0 mm 4 mps 754 mmHg 62%
    11:00 +12°C° 0 mm 4 mps 753 mmHg 61%
    12:00 +13°C° 0 mm 5 mps 753 mmHg 60%
    13:00 +14°C° 0 mm 5 mps 753 mmHg 60%
    14:00 +13°C° 0.3 mm 5 mps 753 mmHg 65%
    15:00 +12°C° 0.3 mm 4 mps 752 mmHg 70%
    16:00 +11°C° 0.3 mm 4 mps 752 mmHg 75%
    17:00 +11°C° 0.3 mm 3 mps 752 mmHg 76%
    18:00 +10°C° 0.3 mm 3 mps 752 mmHg 77%
    19:00 +9°C° 0.3 mm 3 mps 752 mmHg 78%
    20:00 +9°C° 0.2 mm 3 mps 752 mmHg 77%
    21:00 +9°C° 0.2 mm 2 mps 752 mmHg 77%
    22:00 +9°C° 0.2 mm 2 mps 752 mmHg 77%
    23:00 +8°C° 0.1 mm 2 mps 752 mmHg 77%

    Tomorrow, 20 January, Sunday

    Time Temperature Precipitation Wind Pressure Humidity
    00:00 +8°C° 0.1 mm 2 mps 752 mmHg 77%
    01:00 +7°C° 0.1 mm 2 mps 752 mmHg 77%
    02:00 +7°C° 0.3 mm 3 mps 752 mmHg 76%
    03:00 +7°C° 0.3 mm 3 mps 752 mmHg 75%
    04:00 +7°C° 0.3 mm 3 mps 751 mmHg 75%
    05:00 +6°C° 0.1 mm 4 mps 752 mmHg 75%
    06:00 +6°C° 0.1 mm 4 mps 752 mmHg 75%
    07:00 +6°C° 0.1 mm 4 mps 752 mmHg 75%
    08:00 +7°C° 0.1 mm 4 mps 752 mmHg 73%
    09:00 +10°C° 0.1 mm 4 mps 752 mmHg 70%
    10:00 +11°C° 0.1 mm 4 mps 753 mmHg 67%
    11:00 +12°C° 0.3 mm 4 mps 752 mmHg 67%
    12:00 +12°C° 0.3 mm 4 mps 752 mmHg 67%
    13:00 +13°C° 0.3 mm 4 mps 752 mmHg 67%
    14:00 +12°C° 0.4 mm 3 mps 752 mmHg 71%
    15:00 +12°C° 0.4 mm 3 mps 752 mmHg 74%
    16:00 +12°C° 0.4 mm 2 mps 752 mmHg 78%
    17:00 +10°C° 0.2 mm 2 mps 752 mmHg 80%
    18:00 +10°C° 0.2 mm 1 mps 752 mmHg 82%
    19:00 +9°C° 0.2 mm 1 mps 752 mmHg 84%
    20:00 +8°C° 0.1 mm 2 mps 753 mmHg 83%
    21:00 +8°C° 0.1 mm 2 mps 753 mmHg 81%
    22:00 +7°C° 0.1 mm 2 mps 753 mmHg 80%
    23:00 +7°C° 0 mm 3 mps 753 mmHg 78%

    Day after tomorrow, 21 January, Monday

    Time Temperature Precipitation Wind Pressure Humidity
    00:00 +7°C° 0 mm 3 mps 753 mmHg 77%
    01:00 +7°C° 0 mm 3 mps 753 mmHg 75%
    02:00 +7°C° 0.1 mm 3 mps 752 mmHg 74%
    03:00 +7°C° 0.1 mm 3 mps 752 mmHg 73%
    04:00 +7°C° 0.1 mm 3 mps 752 mmHg 72%
    05:00 +6°C° 0.1 mm 4 mps 752 mmHg 71%
    06:00 +6°C° 0.1 mm 4 mps 752 mmHg 70%
    07:00 +6°C° 0.1 mm 4 mps 752 mmHg 69%
    08:00 +7°C° 0.1 mm 4 mps 753 mmHg 64%
    09:00 +10°C° 0.1 mm 4 mps 753 mmHg 59%
    10:00 +11°C° 0.1 mm 4 mps 753 mmHg 54%
    11:00 +12°C° 0.2 mm 4 mps 753 mmHg 54%
    12:00 +13°C° 0.2 mm 4 mps 752 mmHg 54%
    13:00 +13°C° 0.2 mm 4 mps 752 mmHg 53%
    14:00 +13°C° 0.5 mm 4 mps 752 mmHg 58%
    15:00 +12°C° 0.5 mm 3 mps 752 mmHg 62%
    16:00 +11°C° 0.5 mm 3 mps 752 mmHg 67%
    17:00 +11°C° 0.4 mm 3 mps 752 mmHg 68%
    18:00 +10°C° 0.4 mm 3 mps 752 mmHg 69%
    19:00 +9°C° 0.4 mm 3 mps 752 mmHg 71%
    20:00 +9°C° 0.2 mm 3 mps 752 mmHg 71%
    21:00 +9°C° 0.2 mm 3 mps 752 mmHg 71%
    22:00 +8°C° 0.2 mm 3 mps 752 mmHg 72%
    23:00 +8°C° 0.4 mm 3 mps 752 mmHg 73%

    22 January, Tuesday

    Time Temperature Precipitation Wind Pressure Humidity
    00:00 +8°C° 0.4 mm 3 mps 752 mmHg 74%
    01:00 +8°C° 0.4 mm 3 mps 751 mmHg 75%
    02:00 +8°C° 1.3 mm 3 mps 751 mmHg 77%
    03:00 +8°C° 1.3 mm 3 mps 750 mmHg 78%
    04:00 +8°C° 1.3 mm 3 mps 750 mmHg 80%
    05:00 +8°C° 0.8 mm 3 mps 750 mmHg 79%
    06:00 +7°C° 0.8 mm 4 mps 750 mmHg 78%
    07:00 +7°C° 0.8 mm 4 mps 749 mmHg 77%
    08:00 +7°C° 0.8 mm 4 mps 749 mmHg 75%
    09:00 +8°C° 0.8 mm 4 mps 749 mmHg 72%
    10:00 +8°C° 0.8 mm 4 mps 749 mmHg 70%
    11:00 +10°C° 0.5 mm 4 mps 748 mmHg 69%
    12:00 +11°C° 0.5 mm 4 mps 747 mmHg 68%
    13:00 +11°C° 0.5 mm 4 mps 746 mmHg 68%
    14:00 +10°C° 0.9 mm 5 mps 746 mmHg 68%
    15:00 +10°C° 0.9 mm 5 mps 745 mmHg 67%
    16:00 +10°C° 0.9 mm 5 mps 744 mmHg 67%
    17:00 +10°C° 4.9 mm 4 mps 744 mmHg 73%
    18:00 +9°C° 4.9 mm 3 mps 744 mmHg 80%
    19:00 +8°C° 4.9 mm 2 mps 743 mmHg 86%
    20:00 +8°C° 3.2 mm 2 mps 743 mmHg 86%
    21:00 +8°C° 3.2 mm 2 mps 743 mmHg 87%
    22:00 +8°C° 3.2 mm 3 mps 743 mmHg 87%
    23:00 +8°C° 0.9 mm 3 mps 742 mmHg 87%

    23 January, Wednesday

    Time Temperature Precipitation Wind Pressure Humidity
    00:00 +8°C° 0.9 mm 2 mps 742 mmHg 87%
    01:00 +8°C° 0.9 mm 2 mps 742 mmHg 87%
    02:00 +8°C° 0.4 mm 2 mps 741 mmHg 88%
    03:00 +8°C° 0.4 mm 2 mps 741 mmHg 89%
    04:00 +8°C° 0.4 mm 2 mps 741 mmHg 90%
    05:00 +8°C° 0.2 mm 1 mps 741 mmHg 91%
    06:00 +8°C° 0.2 mm 1 mps 741 mmHg 92%
    07:00 +7°C° 0.2 mm 0 mps 741 mmHg 93%
    08:00 +8°C° 0 mm 0 mps 741 mmHg 88%
    09:00 +9°C° 0 mm 0 mps 741 mmHg 84%
    10:00 +9°C° 0 mm 0 mps 741 mmHg 79%
    11:00 +10°C° 0 mm 0 mps 741 mmHg 76%
    12:00 +10°C° 0 mm 0 mps 741 mmHg 73%
    13:00 +11°C° 0 mm 0 mps 740 mmHg 70%
    14:00 +11°C° 0.1 mm 1 mps 740 mmHg 73%
    15:00 +11°C° 0.1 mm 1 mps 741 mmHg 75%
    16:00 +11°C° 0.1 mm 1 mps 741 mmHg 78%
    17:00 +9°C° 0.5 mm 2 mps 741 mmHg 82%
    18:00 +9°C° 0.5 mm 3 mps 741 mmHg 87%
    19:00 +8°C° 0.5 mm 3 mps 742 mmHg 91%
    20:00 +7°C° 0.1 mm 4 mps 742 mmHg 90%
    21:00 +6°C° 0.1 mm 4 mps 742 mmHg 89%
    22:00 +6°C° 0.1 mm 4 mps 742 mmHg 87%
    23:00 +6°C° 0 mm 4 mps 742 mmHg 85%

    24 January, Thursday

    Time Temperature Precipitation Wind Pressure Humidity
    00:00 +6°C° 0 mm 4 mps 742 mmHg 83%
    01:00 +5°C° 0 mm 5 mps 741 mmHg 81%
    02:00 +5°C° 0 mm 4 mps 741 mmHg 78%
    03:00 +5°C° 0 mm 4 mps 741 mmHg 76%
    04:00 +5°C° 0 mm 4 mps 740 mmHg 74%
    05:00 +5°C° 0 mm 4 mps 740 mmHg 73%
    06:00 +5°C° 0 mm 4 mps 740 mmHg 73%
    07:00 +5°C° 0 mm 4 mps 739 mmHg 72%
    08:00 +6°C° 0 mm 4 mps 739 mmHg 68%
    09:00 +8°C° 0 mm 5 mps 739 mmHg 64%
    10:00 +9°C° 0 mm 5 mps 738 mmHg 60%
    11:00 +10°C° 0 mm 5 mps 738 mmHg 55%
    12:00 +12°C° 0 mm 5 mps 737 mmHg 51%
    13:00 +13°C° 0 mm 5 mps 737 mmHg 46%
    14:00 +12°C° 0.2 mm 5 mps 737 mmHg 53%
    15:00 +10°C° 0.2 mm 5 mps 737 mmHg 59%
    16:00 +8°C° 0.2 mm 5 mps 737 mmHg 65%
    17:00 +8°C° 0 mm 5 mps 737 mmHg 67%
    18:00 +7°C° 0 mm 5 mps 737 mmHg 69%
    19:00 +6°C° 0 mm 5 mps 736 mmHg 71%
    20:00 +6°C° 0.1 mm 5 mps 737 mmHg 72%
    21:00 +6°C° 0.1 mm 4 mps 737 mmHg 74%
    22:00 +6°C° 0.1 mm 4 mps 738 mmHg 75%
    23:00 +6°C° 0 mm 4 mps 738 mmHg 74%
    Show more